389  
ASUS45 KBOI 240110  
RWRID  
 
IDAHO REGIONAL WEATHER ROUNDUP  
NATIONAL WEATHER SERVICE BOISE ID  
700 PM MDT THU MAY 23 2024  
 
NOTE: "FAIR" INDICATES FEW OR NO CLOUDS BELOW 12000 FEET  
WITH NO SIGNIFICANT WEATHER AND/OR S TO VISIBILITY
 
 
IDZ012-014-240200-  
SOUTHWEST IDAHO  
 
 
CITY SKY/WX TMP DP RH WIND PRES REMARKS
 
BOISE SUNNY 62 34 35 NW15G23 30.00F  
CALDWELL SUNNY 63 37 38 W8 30.02F  
MOUNTAIN HOME SUNNY 62 33 33 W13 29.98F  

 
 
IDZ016-017-240200-  
SOUTHCENTRAL IDAHO  
 
 
CITY SKY/WX TMP DP RH WIND PRES REMARKS
 
BURLEY SUNNY 55 31 39 W9 30.03S  
JEROME SUNNY 56 30 37 W10G21 30.02S  
TWIN FALLS SUNNY 57 32 38 NW14G22 30.03S  

 
 
IDZ019>023-240200-  
SOUTHEAST IDAHO  
 
 
CITY SKY/WX TMP DP RH WIND PRES REMARKS
 
IDAHO FALLS PTSUNNY 53 31 42 CALM 30.04R  
POCATELLO PTSUNNY 50 33 52 SW10 30.05R  
REXBURG CLOUDY 48 33 56 S5 30.02R  

 
 
IDZ006-010-011-018-031-032-240200-  
CENTRAL IDAHO MOUNTAINS  
 
 
CITY SKY/WX TMP DP RH WIND PRES REMARKS
 
MCCALL CLOUDY 48 31 51 NW8 30.03S  
HAILEY PTSUNNY 54 36 50 S10 30.02R  
STANLEY N/A 51 26 37 N7G18 30.02S  
SALMON N/A 52 35 52 N8 30.02  
CHALLIS SUNNY 56 28 34 N8 29.98S  

 
 
IDZ002-004-006-007-026-240200-  
NORTHERN IDAHO  
 
 
CITY SKY/WX TMP DP RH WIND PRES REMARKS
 
LEWISTON SUNNY 65 41 41 E7 29.99F  
LOWELL NOT AVBL  
COEUR D'ALENE CLOUDY 58 43 57 S13 29.96F  
MULLAN PASS CLOUDY 38 35 89 CALM 30.01S  

 
 
 
CLICK HERE TO GO TO PREVIOUS BULLETINS.

The Nexlab ID Page Main Text Page